[[{"header":{"parameterUnit":"m.s-1","parameterCategory":1,"la1":30.2991,"la2":30.254,"lo1":-89.0895,"lo2":-89.0444,"dy":0.0017,"dx":0.0017,"nx":28,"ny":28,"refTime":"2026-01-01T03:00:00:Z","depth":0,"parameterNumber":2,"parameterNumberName":"U-component_of_WINDS"},"data":[0,0,0,0,0,0,0,0,0,0,0,0,0,0,0,0,0,0,0,0,0,0,0,0,0,0,0,0,0,0,0,0,0,0,0,0,0,0,0,0,0,0,0,0,0,0,0,0,0,0,0,0,0,0,0,0,0,0,1.5038,1.504,0,1.5245,1.5248,1.525,1.5264,1.5262,1.526,1.5258,1.5478,1.5486,1.5494,0,0,0,0,0,0,0,0,0,0,0,0,0,1.4662,1.4669,1.5037,1.504,1.5043,1.5245,1.5248,1.5251,1.5265,1.5262,1.5259,1.5256,1.5475,1.5485,1.5495,0,0,0,0,0,0,0,0,0,0,0,0,0,1.4843,1.4671,1.5037,1.5074,1.5079,1.5244,1.5248,1.5251,1.5265,1.5262,1.5258,1.5255,1.5472,1.5484,1.5496,1.5641,0,0,1.5533,1.5538,0,0,0,0,0,0,0,0,1.4833,1.4857,1.5066,1.5072,1.5078,1.5225,1.5196,1.5382,1.5266,1.5195,1.5257,1.5253,1.5397,1.5415,1.5462,1.5651,1.566,1.5534,1.5541,1.5546,1.555,0,0,0,0,0,0,0,1.482,1.4848,1.512,1.5069,1.5076,1.5083,1.5105,1.5232,1.5314,1.5201,1.5202,1.5226,1.54,1.545,1.5467,1.5664,1.5534,1.5544,1.5552,1.5556,1.5986,1.599,0,0,0,0,0,0,1.48,1.4838,1.5113,1.5126,1.4944,1.5093,1.5117,1.5182,1.5312,1.5328,1.5229,1.5226,1.5432,1.5453,1.5475,1.5656,1.5546,1.5558,1.5565,1.5982,1.5987,1.5991,0,0,0,0,0,0,1.4791,1.4824,1.5105,1.4982,1.5019,1.5103,1.5175,1.5188,1.5238,1.5333,1.5349,1.5265,1.543,1.5458,1.56,1.5664,1.5563,1.5574,1.5977,1.5983,1.5989,1.6017,0,0,0,0,0,0,1.4781,1.4821,1.4874,1.4983,1.5025,1.5223,1.5179,1.5194,1.5258,1.5256,1.5371,1.5387,1.5429,1.5582,1.5612,1.5679,1.5583,1.5972,1.598,1.5987,1.6011,1.6024,1.6034,0,0,0,0,0,1.4767,1.4875,1.4877,1.491,1.5093,1.5227,1.5251,1.5295,1.5263,1.5319,1.5381,1.5383,1.5651,1.5596,1.563,1.5702,1.5968,1.5977,1.5987,1.6006,1.6021,1.6034,0,0,0,0,0,0,1.4774,1.489,1.4894,1.5039,1.5123,1.5229,1.5301,1.5309,1.5405,1.54,1.5453,1.5479,1.562,1.5675,1.5611,1.5851,1.5807,1.5823,1.581,1.5825,1.5837,1.5822,1.5593,0,0,0,0,0,1.4791,1.4887,1.4985,1.5104,1.5146,1.5216,1.5276,1.5302,1.5392,1.5428,1.55,1.559,1.5695,1.5762,1.5864,1.6018,1.6046,1.6085,1.6096,1.6106,1.612,1.621,1.623,1.6022,1.6022,1.6022,0,0,1.4831,1.4906,1.4963,1.5107,1.5175,1.5277,1.5246,1.5354,1.5431,1.5446,1.5584,1.564,1.5743,1.5893,1.5962,1.5943,1.6184,1.6118,1.6124,1.6134,1.6222,1.6242,1.6259,1.6029,1.6027,1.6026,0,0,1.4954,1.5019,1.5127,1.5195,1.5298,1.5344,1.537,1.5476,1.5513,1.5652,1.5666,1.576,1.5938,1.6012,1.6073,1.6227,1.6234,1.6258,1.6321,1.6408,1.6424,1.6439,1.6498,1.6518,1.6272,1.6272,1.6272,0,1.499,1.514,1.5182,1.529,1.5355,1.5371,1.5483,1.5548,1.568,1.5726,1.5701,1.5927,1.5998,1.6167,1.6204,1.6252,1.6287,1.6246,1.6418,1.6433,1.6448,1.6505,1.6526,1.6275,1.6274,1.6274,1.6274,0,1.5182,1.5286,1.5362,1.5486,1.5559,1.5669,1.573,1.58,1.582,1.5871,1.6014,1.6099,1.622,1.6261,1.6283,1.6435,1.642,1.6406,1.6364,1.647,1.6524,1.6545,1.6278,1.6277,1.6277,1.6276,0,0,1.5315,1.5462,1.5489,1.5548,1.5663,1.5746,1.5858,1.5974,1.6034,1.6124,1.6223,1.6374,1.6362,1.6432,1.6462,1.6538,1.6659,1.6516,1.6519,1.6542,1.6837,1.6848,1.6872,1.6664,1.6668,1.6671,1.6829,0,1.5454,1.565,1.5692,1.5864,1.5963,1.5981,1.6079,1.6162,1.6212,1.6307,1.6363,1.6471,1.6445,1.6488,1.6564,1.6628,1.6719,1.6617,1.676,1.6764,1.6736,1.69,1.6913,1.7057,1.685,1.6854,1.6856,0,1.5641,1.5735,1.5916,1.602,1.6064,1.6151,1.6262,1.635,1.6447,1.6479,1.6557,1.6579,1.6701,1.665,1.6821,1.675,1.6811,1.6852,1.6859,1.6876,1.6818,1.6925,1.7104,1.7127,1.6889,1.6887,1.6884,0,1.5725,1.5896,1.6028,1.6076,1.6201,1.6262,1.6317,1.641,1.6478,1.6576,1.6621,1.6733,1.6795,1.6882,1.6937,1.6894,1.7104,1.7057,1.7138,1.7137,1.7183,1.718,1.7377,1.7217,1.7217,1.7216,1.7216,0,1.5877,1.5988,1.6067,1.6148,1.6274,1.6322,1.6447,1.6503,1.6585,1.668,1.6702,1.6792,1.6856,1.6956,1.6999,1.7136,1.7163,1.7195,1.7206,1.7195,1.7191,1.7238,1.723,1.7222,1.7221,1.722,1.7219,0,1.5992,1.6049,1.6194,1.6299,1.6329,1.6418,1.651,1.6592,1.6642,1.6762,1.6793,1.6874,1.6993,1.7054,1.7203,1.7232,1.7388,1.7391,1.7355,1.736,1.7438,1.7431,1.7675,1.7711,1.7523,1.7524,1.7526,0,1.6087,1.6173,1.6287,1.6351,1.6407,1.651,1.6579,1.6631,1.6703,1.682,1.6889,1.7008,1.7106,1.7296,1.737,1.7485,1.7494,1.7571,1.7511,1.7499,1.75,1.7495,1.7506,1.7583,1.7584,1.7586,1.7587,0,1.625,1.6274,1.6371,1.648,1.6562,1.665,1.6738,1.679,1.6856,1.6937,1.7057,1.7133,1.7285,1.7405,1.7526,1.7586,1.76,1.7605,1.763,1.7622,1.7599,1.7616,1.7387,1.76,1.7598,1.7597,1.7597,1.7596,1.6361,1.6439,1.6532,1.6641,1.6712,1.6794,1.6877,1.6937,1.7037,1.7163,1.7188,1.7317,1.7415,1.7578,1.7643,1.7747,1.7731,1.7767,1.7777,1.7786,1.7791,1.7579,1.7769,1.7768,1.7768,1.7768,1.7768,0,1.6528,1.6589,1.6688,1.681,1.6897,1.6898,1.6996,1.707,1.7181,1.727,1.7366,1.7507,1.7624,1.7707,1.7827,1.7895,1.7905,1.7925,1.7923,1.7938,1.7796,1.7764,1.7916,1.7916,1.7916,1.7916,1.7916,1.7916,1.6626,1.6759,1.6795,1.6966,1.7027,1.7151,1.7207,1.7285,1.7356,1.7511,1.7607,1.766,1.7748,1.7875,1.7984,1.8006,1.8051,1.8072,1.8095,1.7963,1.7947,1.7932,1.7902,1.8081,1.8081,1.8228,1.823,1.8231]},{"header":{"parameterUnit":"m.s-1","parameterCategory":1,"la1":30.2991,"la2":30.254,"lo1":-89.0895,"lo2":-89.0444,"dy":0.0017,"dx":0.0017,"nx":28,"ny":28,"refTime":"2026-01-01T03:00:00:Z","depth":0,"parameterNumber":3,"parameterNumberName":"V-component_of_WINDS"},"data":[0,0,0,0,0,0,0,0,0,0,0,0,0,0,0,0,0,0,0,0,0,0,0,0,0,0,0,0,0,0,0,0,0,0,0,0,0,0,0,0,0,0,0,0,0,0,0,0,0,0,0,0,0,0,0,0,0,0,3.1368,3.137,0,3.1501,3.1503,3.1504,3.1477,3.1474,3.1472,3.147,3.1607,3.1613,3.1619,0,0,0,0,0,0,0,0,0,0,0,0,0,3.1093,3.1098,3.1368,3.137,3.1372,3.1501,3.1503,3.1505,3.1477,3.1474,3.1471,3.1469,3.1605,3.1612,3.1619,0,0,0,0,0,0,0,0,0,0,0,0,0,3.1218,3.11,3.1368,3.1373,3.1375,3.1501,3.1503,3.1505,3.1478,3.1474,3.1471,3.1467,3.1603,3.1612,3.162,3.1749,0,0,3.1648,3.1652,0,0,0,0,0,0,0,0,3.1211,3.1228,3.1371,3.1373,3.1376,3.1469,3.1456,3.1587,3.1479,3.1439,3.147,3.1465,3.1564,3.1576,3.1609,3.1756,3.1761,3.1648,3.1654,3.1658,3.166,0,0,0,0,0,0,0,3.1202,3.1222,3.1421,3.1373,3.1376,3.137,3.1384,3.1481,3.1521,3.1442,3.144,3.1457,3.1565,3.1601,3.1612,3.1763,3.1648,3.1656,3.1662,3.1665,3.2024,3.2028,0,0,0,0,0,0,3.1191,3.1215,3.1417,3.1425,3.1282,3.1378,3.1393,3.1443,3.152,3.1528,3.146,3.1455,3.1587,3.1602,3.1617,3.1774,3.1658,3.1666,3.1671,3.202,3.2025,3.203,0,0,0,0,0,0,3.1186,3.121,3.1411,3.132,3.1345,3.1387,3.1442,3.1447,3.1483,3.1533,3.154,3.1489,3.1585,3.1604,3.1717,3.1778,3.167,3.1678,3.2015,3.2022,3.2028,3.2089,0,0,0,0,0,0,3.1178,3.1208,3.1256,3.1321,3.135,3.1509,3.1446,3.1452,3.1498,3.1493,3.1562,3.157,3.1583,3.1704,3.1726,3.1789,3.1685,3.201,3.2018,3.2026,3.2081,3.2096,3.2109,0,0,0,0,0,3.1168,3.1268,3.1259,3.1283,3.1412,3.1512,3.1529,3.1542,3.1503,3.1553,3.1585,3.1568,3.1768,3.1715,3.174,3.1807,3.2006,3.2016,3.2025,3.2075,3.2093,3.2109,0,0,0,0,0,0,3.121,3.1277,3.1267,3.1391,3.1446,3.1507,3.157,3.1561,3.1628,3.1621,3.1635,3.1651,3.1765,3.1797,3.1737,3.1936,3.1882,3.1896,3.1911,3.1929,3.1943,3.1933,3.1693,0,0,0,0,0,3.1233,3.1309,3.1363,3.1467,3.1496,3.1528,3.1573,3.1578,3.1636,3.1659,3.1699,3.1757,3.1833,3.1883,3.1955,3.2086,3.2101,3.2144,3.2158,3.2169,3.2182,3.2255,3.2275,3.2061,3.2061,3.206,0,0,3.1283,3.1329,3.1375,3.1477,3.152,3.1599,3.1548,3.1633,3.1692,3.1672,3.1781,3.1813,3.1878,3.2001,3.2056,3.2031,3.2244,3.2181,3.2189,3.2196,3.2267,3.2287,3.2305,3.2067,3.2066,3.2065,0,0,3.1414,3.1455,3.1547,3.1592,3.1658,3.168,3.1702,3.1765,3.1786,3.1895,3.1882,3.1953,3.2083,3.213,3.2172,3.2322,3.2309,3.2345,3.2418,3.2489,3.2506,3.2521,3.2577,3.2596,3.2358,3.2358,3.2358,0,3.1467,3.1585,3.1596,3.1683,3.1729,3.1714,3.1809,3.1852,3.1938,3.1971,3.194,3.2105,3.2147,3.2281,3.2318,3.2352,3.2379,3.2338,3.2503,3.2518,3.2532,3.2585,3.2606,3.2362,3.2362,3.2361,3.2361,0,3.1648,3.173,3.1796,3.1881,3.1934,3.2024,3.205,3.2103,3.2104,3.2129,3.2242,3.2293,3.2376,3.2408,3.241,3.2544,3.2526,3.2499,3.2444,3.2557,3.2607,3.2627,3.2368,3.2366,3.2365,3.2364,0,0,3.1808,3.1899,3.1923,3.1962,3.2035,3.2099,3.2189,3.227,3.2316,3.2377,3.2454,3.2565,3.2541,3.2588,3.2595,3.2657,3.2776,3.2623,3.2625,3.2651,3.2928,3.2949,3.2972,3.2767,3.2771,3.2774,3.2923,0,3.1947,3.2106,3.2119,3.2262,3.2339,3.2327,3.2406,3.246,3.2486,3.2556,3.2584,3.2664,3.2625,3.2654,3.2715,3.2748,3.2832,3.2737,3.284,3.2844,3.2825,3.2998,3.302,3.3158,3.2942,3.2946,3.2948,0,3.213,3.2196,3.2347,3.241,3.2443,3.2514,3.259,3.2657,3.2718,3.2733,3.2786,3.2785,3.2879,3.2821,3.2951,3.2887,3.293,3.2953,3.2959,3.297,3.2903,3.3015,3.3202,3.3223,3.2979,3.2976,3.2974,0,3.2234,3.2361,3.2468,3.2501,3.2578,3.2628,3.2662,3.272,3.2768,3.2836,3.2868,3.2945,3.2988,3.3048,3.3069,3.3024,3.3199,3.3142,3.3216,3.3215,3.3254,3.3251,3.3452,3.3279,3.3279,3.3279,3.3278,0,3.2388,3.2481,3.2516,3.2582,3.2686,3.2702,3.2805,3.2837,3.2888,3.2961,3.2955,3.3024,3.3046,3.3119,3.3136,3.3243,3.3262,3.3277,3.3281,3.3279,3.3277,3.3308,3.3299,3.3284,3.3283,3.3282,3.3281,0,3.2522,3.2549,3.2665,3.2728,3.2746,3.2821,3.2875,3.2939,3.2964,3.3057,3.3079,3.3119,3.3205,3.3231,3.3334,3.3346,3.3471,3.3466,3.3451,3.3452,3.3524,3.3518,3.3753,3.3785,3.359,3.3592,3.3593,0,3.2619,3.269,3.2761,3.281,3.2846,3.2924,3.2973,3.2992,3.3044,3.312,3.3176,3.3261,3.3329,3.3467,3.3506,3.3585,3.3582,3.3659,3.3594,3.359,3.3585,3.3582,3.359,3.3672,3.3674,3.3675,3.3677,0,3.2789,3.2799,3.2871,3.2948,3.3008,3.307,3.3129,3.3169,3.3196,3.3256,3.3343,3.3397,3.3502,3.3587,3.3668,3.3704,3.3696,3.3697,3.3718,3.3718,3.3707,3.3715,3.3486,3.3692,3.369,3.3689,3.3688,3.3688,3.2908,3.2972,3.3032,3.3113,3.316,3.3216,3.328,3.3314,3.3387,3.3474,3.3481,3.3576,3.3637,3.3745,3.3786,3.3861,3.3839,3.387,3.3878,3.3885,3.3892,3.3694,3.3876,3.3875,3.3875,3.3875,3.3874,0,3.3079,3.3118,3.3192,3.3276,3.334,3.3326,3.3391,3.3446,3.353,3.3588,3.3656,3.3757,3.384,3.3886,3.3968,3.402,3.4019,3.4041,3.4039,3.4047,3.3906,3.388,3.4041,3.4041,3.4041,3.4041,3.4041,3.4041,3.3176,3.3284,3.3301,3.3433,3.3471,3.3564,3.3603,3.3655,3.3701,3.3815,3.3884,3.3913,3.3966,3.4053,3.4129,3.414,3.4172,3.4197,3.4206,3.4074,3.4057,3.4041,3.4016,3.4204,3.4204,3.4341,3.4343,3.4344]}]]